EDT,Max TemperatureF,Mean TemperatureF,Min TemperatureF,Max Dew PointF,MeanDew PointF,Min DewpointF,Max Humidity, Mean Humidity, Min Humidity, Max Sea Level PressureIn, Mean Sea Level PressureIn, Min Sea Level PressureIn, Max VisibilityMiles, Mean VisibilityMiles, Min VisibilityMiles, Max Wind SpeedMPH, Mean Wind SpeedMPH, Max Gust SpeedMPH,PrecipitationIn, CloudCover, Events, WindDirDegrees
2013-4-1,62,48,34,43,35,9,100,71,34,29.83,29.64,29.53,10,8,2,24,10,34,0.10,5,Rain,281
2013-4-2,41,34,28,13,10,5,49,38,27,29.98,29.90,29.85,10,10,10,25,13,38,0.00,4,,265
2013-4-3,45,36,28,14,9,4,54,35,19,30.20,30.03,29.97,10,10,10,22,14,32,0.00,1,,272
2013-4-4,55,40,26,24,13,8,60,36,17,30.33,30.20,30.09,10,10,10,17,10,24,0.00,0,,246
2013-4-5,61,48,35,27,23,15,70,46,17,30.07,29.87,29.67,10,10,10,21,10,29,0.00,2,,252
2013-4-6,46,36,28,22,8,-1,61,35,15,30.38,30.21,29.94,10,10,10,23,12,33,0.00,0,,306
2013-4-7,57,39,23,38,25,14,81,56,28,30.37,30.20,30.03,10,10,10,23,6,36,0.00,2,,199
2013-4-8,64,53,42,41,37,30,93,61,28,30.12,30.06,29.98,10,10,10,13,7,20,0.00,1,,239
2013-4-9,71,58,46,49,43,37,100,71,36,30.10,29.96,29.87,10,8,1,21,7,28,0.04,5,Rain,234
2013-4-10,62,54,45,47,44,40,97,80,56,30.02,29.96,29.90,10,9,6,10,4,,0.20,8,Rain,58
2013-4-11,54,48,41,47,39,23,100,79,39,30.18,29.99,29.84,10,6,1,12,6,,0.07,8,Rain,6
2013-4-12,39,37,35,37,35,29,100,90,70,30.20,30.01,29.84,10,6,2,23,9,30,0.46,8,Rain,72
2013-4-13,52,44,35,40,35,33,100,84,52,29.97,29.86,29.77,10,9,4,13,8,20,0.04,8,Rain,346
2013-4-14,53,44,33,39,31,24,100,63,36,30.25,30.06,29.95,10,10,10,17,6,26,0.00,4,,270
2013-4-15,57,42,28,38,31,26,96,68,34,30.43,30.37,30.26,10,10,10,14,3,21,0.00,0,,152
2013-4-16,66,50,36,50,42,36,100,72,47,30.43,30.27,30.07,10,10,10,22,9,32,0.00,3,Rain,195
2013-4-17,66,58,44,54,35,26,94,49,25,30.37,30.21,30.07,10,10,10,15,10,23,0.00,3,,316
2013-4-18,62,48,34,44,34,27,89,58,33,30.46,30.35,30.17,10,10,10,17,6,24,0.00,3,,157
2013-4-19,75,62,51,63,57,47,100,86,57,30.17,29.92,29.66,10,8,2,25,10,37,0.00,8,Rain,197
2013-4-20,64,54,42,63,44,20,100,73,35,30.25,29.82,29.59,10,9,3,16,13,24,0.51,5,Rain,268
2013-4-21,52,42,32,29,21,17,85,47,26,30.71,30.54,30.29,10,10,10,20,10,25,0.00,0,,323
2013-4-22,51,39,28,33,28,23,96,67,35,30.79,30.72,30.60,10,10,10,17,6,26,0.00,1,,80
2013-4-23,41,38,35,41,38,30,100,94,75,30.62,30.42,30.17,10,5,2,15,9,24,0.02,8,Rain,32
2013-4-24,73,56,39,50,44,38,100,73,28,30.11,29.94,29.81,10,9,3,14,9,22,0.00,4,,299
2013-4-25,63,52,39,54,37,24,100,60,23,30.31,30.06,29.83,10,10,9,23,10,31,0.03,3,Rain,268
2013-4-26,59,44,30,40,34,29,96,64,37,30.47,30.41,30.32,10,10,10,16,5,17,0.00,3,,103
2013-4-27,62,48,33,40,35,32,100,71,36,30.46,30.40,30.32,10,8,0,14,2,,0.00,2,Fog,152
2013-4-28,68,51,36,42,35,26,97,55,31,30.38,30.31,30.25,10,10,10,16,6,22,0.00,0,,147
2013-4-29,69,57,45,47,37,24,93,53,28,30.30,30.27,30.22,10,10,10,13,5,18,0.00,1,,188
2013-4-30,66,54,42,38,29,20,76,42,19,30.41,30.34,30.29,10,10,10,13,4,16,0.00,1,,117